This is the latest recevied weather packets stored in our database for station/object KE8GJZ-2. If no packets are shown the sender has not sent any weather packets the latest 10 day(s).
| Time | Temp. | Humidity | Pressure | Rain* | Wind** | Luminosity | Snow |
|---|---|---|---|---|---|---|---|
| 1777759604 | 9.44° C | 43% | 1016.5 hPa | 0 mm | - | 281 W/m² | - |
| 1777759300 | 10° C | 41% | 1016.7 hPa | 0 mm | - | 292 W/m² | - |
| 1777758997 | 10° C | 40% | 1016.4 hPa | 0 mm | - | 301 W/m² | - |
| 1777758694 | 9.44° C | 40% | 1016.4 hPa | 0 mm | - | 323 W/m² | - |
| 1777758391 | 9.44° C | 43% | 1016.6 hPa | 0 mm | - | 348 W/m² | - |
| 1777758088 | 9.44° C | 43% | 1016.8 hPa | 0 mm | - | 353 W/m² | - |
| 1777757785 | 10° C | 38% | 1016.7 hPa | 0 mm | - | 384 W/m² | - |
| 1777757483 | 9.44° C | 43% | 1016.6 hPa | 0 mm | - | 406 W/m² | - |
| 1777757181 | 10° C | 39% | 1016.5 hPa | 0 mm | - | 411 W/m² | - |
| 1777756879 | 10° C | 42% | 1016.8 hPa | 0 mm | - | 414 W/m² | - |
| 1777756575 | 10° C | 41% | 1016.8 hPa | 0 mm | - | 438 W/m² | - |
| 1777756272 | 9.44° C | 42% | 1016.7 hPa | 0 mm | - | 449 W/m² | - |
| 1777755970 | 8.89° C | 41% | 1016.6 hPa | 0 mm | - | 457 W/m² | - |
| 1777755666 | 9.44° C | 44% | 1016.9 hPa | 0 mm | - | 475 W/m² | - |
| 1777755363 | 10° C | 42% | 1016.7 hPa | 0 mm | - | 478 W/m² | - |
| 1777755060 | 9.44° C | 47% | 1016.9 hPa | 0 mm | - | 476 W/m² | - |
| 1777754756 | 9.44° C | 49% | 1016.8 hPa | 0 mm | - | 463 W/m² | - |
| 1777754454 | 8.89° C | 45% | 1016.8 hPa | 0 mm | - | 521 W/m² | - |
| 1777754151 | 8.89° C | 44% | 1017.1 hPa | 0 mm | - | 517 W/m² | - |
| 1777753848 | 9.44° C | 44% | 1017.2 hPa | 0 mm | - | 526 W/m² | - |
| 1777753544 | 9.44° C | 45% | 1017.2 hPa | 0 mm | - | 547 W/m² | - |
| 1777753243 | 8.89° C | 45% | 1017.4 hPa | 0 mm | - | 521 W/m² | - |
| 1777752938 | 9.44° C | 48% | 1017.3 hPa | 0 mm | - | 523 W/m² | - |
| 1777752635 | 8.89° C | 52% | 1017.4 hPa | 0 mm | - | 488 W/m² | - |
| 1777752331 | 8.89° C | 49% | 1017.5 hPa | 0 mm | - | 353 W/m² | - |
* Rain latest hour (hover to see other rain measurements)
** Current wind speed in m/s (hover to see current wind gust speed)